Regional Weather Roundup
Issued by NWS

Home | Current Version | Previous Version | Text Only | Print | Product List | Glossary Off
Versions: 1 2 3 4 5 6 7 8 9 10 11 12 13 14 15 16 17 18 19 20 21 22 23 24 25 26 27 28 29 30 31 32 33 34 35 36 37 38 39 40 41 42 43 44 45 46 47 48 49 50

000
ASUS43 KDTX 301210
RWRMI
MICHIGAN HOURLY REGIONAL WEATHER ROUNDUP
NATIONAL WEATHER SERVICE DETROIT/PONTIAC MI
800 AM EDT TUE SEP 30 2014

NOTE: "FAIR" INDICATES FEW OR NO CLOUDS BELOW 12,000 FEET WITH NO
SIGNIFICANT WEATHER AND/OR OBSTRUCTION TO VISIBILITY.

MIZ047>049-052>055-059>063-066>070-074>076-081>083-301300-
SOUTHEAST LOWER MICHIGAN

CITY           SKY/WX    TMP DP  RH WIND       PRES   REMARKS
ADRIAN         CLOUDY    50  48  93 N7        29.97R
6HR MIN TEMP:  50; 6HR MAX TEMP:  64; 6HR PCP:  0.10;

ALMA           RAIN      49  48  95 N5        30.01R
ANN ARBOR      CLOUDY    52  48  86 N8        29.95R
BAD AXE        CLOUDY    49  49 100 N14       29.96R
6HR MIN TEMP:  49; 6HR MAX TEMP:  53;

DETROIT CITY   CLOUDY    54  50  86 N7        29.95R
DETROIT        LGT RAIN  53  50  89 NW9       29.94R FOG
6HR MIN TEMP:  53; 6HR MAX TEMP:  65; 6HR PCP:  0.17;

FLINT          FOG       51  48  89 NW9       29.98R VSB 1
6HR MIN TEMP:  51; 6HR MAX TEMP:  56; 6HR PCP: TRACE;

GROSSE ILE     CLOUDY    54  52  94 NW7       29.93R FOG
HILLSDALE      CLOUDY    49  49 100 N8        29.97S FOG
6HR MIN TEMP:  49; 6HR MAX TEMP:  62;

HOWELL         DRIZZLE   49  48  97 N8        29.96S
6HR MIN TEMP:  49; 6HR MAX TEMP:  54;


CITY           SKY/WX    TMP DP  RH WIND       PRES   REMARKS
JACKSON        CLOUDY    49  48  97 VRB6      29.97S FOG
6HR MIN TEMP:  49; 6HR MAX TEMP:  54; 6HR PCP:  0.04;

LAMBERTVILLE   CLOUDY    52  48  87 NW9       29.96R
LANSING        CLOUDY    49  48  97 NW7       29.99R FOG
6HR MIN TEMP:  49; 6HR MAX TEMP:  52;

LAPEER         NOT AVBL
MASON          CLOUDY    49  48  95 N5        29.97S
MONROE         CLOUDY    54  52  94 N6        29.94R
MT. CLEMENS    CLOUDY    53  53  99 N10       29.90S
6HR MIN TEMP:  53; 6HR MAX TEMP:  62; 6HR PCP:  0.25;

PONTIAC        DRIZZLE   51  49  92 NW13      29.94R FOG
6HR MIN TEMP:  50; 6HR MAX TEMP:  55; 6HR PCP:  0.12;

PORT HOPE        N/A     53  50  89 CALM      29.93R
6HR MIN TEMP:  52; 6HR MAX TEMP:  57; 6HR PCP:  0.01;

PORT HURON     CLOUDY    52  52 100 N8        29.92S
TRI CITIES     CLOUDY    51  45  79 N13       29.99S
6HR MIN TEMP:  51; 6HR MAX TEMP:  54;

YPSILANTI      CLOUDY    56  50  80 NW9       29.95R
6HR MIN TEMP:  56; 6HR MAX TEMP:  66; 6HR PCP:  0.10;

$$
MIZ043>046-050>051-056>058-064>065-071>073-077>080-301300-
SOUTHWEST LOWER MICHIGAN

CITY           SKY/WX    TMP DP  RH WIND       PRES   REMARKS
BATTLE CREEK   CLOUDY    49  46  90 NW7       30.00R
6HR MIN TEMP:  48; 6HR MAX TEMP:  55; 6HR PCP: TRACE;

BIG RAPIDS     CLOUDY    47  47 100 NW3       30.01R
6HR MIN TEMP:  46; 6HR MAX TEMP:  47;

COLDWATER      CLOUDY    49  47  93 N8        29.99R
6HR MIN TEMP:  49; 6HR MAX TEMP:  62;

GRAND RAPIDS   CLOUDY    49  47  93 NW9       30.01R
6HR MIN TEMP:  49; 6HR MAX TEMP:  51;

KALAMAZOO      CLOUDY    48  45  89 N9        30.01R
6HR MIN TEMP:  47; 6HR MAX TEMP:  53; 6HR PCP:  0.21;

MARSHALL       CLOUDY    47  46  98 CALM      29.98S FOG
MUSKEGON       CLOUDY    48  43  82 N12       30.04R
6HR MIN TEMP:  47; 6HR MAX TEMP:  49;

$$
MIZ016>042-301300-
NORTHERN LOWER MICHIGAN

CITY           SKY/WX    TMP DP  RH WIND       PRES   REMARKS
ALPENA         CLOUDY    46  44  93 N12       30.00S
6HR MIN TEMP:  46; 6HR MAX TEMP:  47; 6HR PCP: TRACE;

BEAVER ISLAND  CLOUDY    46  42  86 NE5       30.06S
6HR MIN TEMP:  45; 6HR MAX TEMP:  46;

BELLAIRE       CLOUDY    45  42  90 N3        30.05R
6HR MIN TEMP:  45; 6HR MAX TEMP:  47;

CADILLAC       CLOUDY    44  43  97 N7        30.01R
CHARLEVOIX     CLOUDY    46  44  93 NE6       30.07S
6HR MIN TEMP:  45; 6HR MAX TEMP:  47;

FRANKFORT      CLOUDY    49  44  81 N6        30.05S
GAYLORD        CLOUDY    41  40  96 VRB6      30.02R FOG
6HR MIN TEMP:  41; 6HR MAX TEMP:  44;

GRAYLING       CLOUDY    45  43  93 N6        30.02R
6HR MIN TEMP:  44; 6HR MAX TEMP:  49;

HARBOR SPRINGS CLOUDY    44  42  91 NW3       30.05R
HOUGHTON LAKE  CLOUDY    45  41  86 N8        30.01R
6HR MIN TEMP:  45; 6HR MAX TEMP:  48;

OSCODA         MIX PCPN  46  46  97 N7        29.98R
PELLSTON       CLOUDY    44  42  93 NW6       30.05S
6HR MIN TEMP:  43; 6HR MAX TEMP:  44;

TRAVERSE CITY  DRIZZLE   48  44  86 NE8       30.03R
6HR MIN TEMP:  47; 6HR MAX TEMP:  49; 6HR PCP:  0.06;

$$
MIZ007>008-015-301300-
EASTERN UPPER MICHIGAN

CITY           SKY/WX    TMP DP  RH WIND       PRES   REMARKS
MACKINAC ISLAN CLOUDY    43  41  92 N9        30.05R
6HR MIN TEMP:  42; 6HR MAX TEMP:  43;

NEWBERRY       CLOUDY    42  39  92 N7        30.07S
S. S. MARIE    CLOUDY    43  38  82 NE3       30.06R
6HR MIN TEMP:  42; 6HR MAX TEMP:  43;

$$
MIZ004>006-011>014-085-301300-
CENTRAL UPPER MICHIGAN

CITY           SKY/WX    TMP DP  RH WIND       PRES   REMARKS
MANISTIQUE     CLOUDY    43  40  89 N7        30.08S
SAWYER-GWINN   CLOUDY    41  37  87 N10       30.11R
$$
MIZ001>003-009>011-084-301300-
WESTERN UPPER MICHIGAN

CITY           SKY/WX    TMP DP  RH WIND       PRES   REMARKS
IRON MOUNTAIN  CLOUDY    41  37  86 N12       30.11R
6HR MIN TEMP:  40; 6HR MAX TEMP:  41;

HOUGHTON       CLOUDY    41  35  79 NE3       30.14S
6HR MIN TEMP:  37; 6HR MAX TEMP:  41;

COPPER HARBOR    N/A     45  38  76 E8        30.15S
6HR MIN TEMP:  44; 6HR MAX TEMP:  45;

$$

ABBREVIATIONS USED IN REMARKS
   TC - TEMPERATURE IN CELSIUS
  WCI - WIND CHILL INDEX
   HX - HEAT INDEX
  VSB - VISIBILITY




USA.gov is the U.S. government's official web portal to all federal, state and local government web resources and services.